When you browse on this site, cookies collect data to enhance your experience and personalize the content and advertising you see.
Visit our Privacy Policy to learn more. By continuing to use the site, you agree to this use of cookies and data.
  • In Latvia
  • List of Countries
  • For 7 days
  • Water Temperature
  • Satellite Maps
  • Weather Map
  • Weather Widgets
  • user-avatar
    Login

    Hourly Weather Ondjiwa

    Today, 15 July, Monday

    Time Temperature Precipitation Wind Pressure Humidity
    00:00 +14°C° 0 mm 2 mps 668 mmHg 18%
    01:00 +13°C° 0 mm 2 mps 668 mmHg 19%
    02:00 +13°C° 0 mm 2 mps 668 mmHg 19%
    03:00 +12°C° 0 mm 2 mps 668 mmHg 19%
    04:00 +10°C° 0 mm 2 mps 668 mmHg 19%
    05:00 +10°C° 0 mm 2 mps 668 mmHg 20%
    06:00 +9°C° 0 mm 2 mps 669 mmHg 21%
    07:00 +9°C° 0 mm 2 mps 669 mmHg 22%
    08:00 +13°C° 0 mm 3 mps 670 mmHg 19%
    09:00 +18°C° 0 mm 3 mps 671 mmHg 15%
    10:00 +23°C° 0 mm 4 mps 672 mmHg 12%
    11:00 +26°C° 0 mm 3 mps 672 mmHg 10%
    12:00 +28°C° 0 mm 3 mps 671 mmHg 9%
    13:00 +30°C° 0 mm 3 mps 671 mmHg 8%
    14:00 +30°C° 0 mm 3 mps 670 mmHg 8%
    15:00 +30°C° 0 mm 3 mps 670 mmHg 8%
    16:00 +30°C° 0 mm 3 mps 669 mmHg 7%
    17:00 +26°C° 0 mm 3 mps 669 mmHg 10%
    18:00 +22°C° 0 mm 3 mps 668 mmHg 12%
    19:00 +18°C° 0 mm 2 mps 668 mmHg 15%
    20:00 +17°C° 0 mm 2 mps 668 mmHg 16%
    21:00 +16°C° 0 mm 2 mps 669 mmHg 17%
    22:00 +15°C° 0 mm 2 mps 669 mmHg 19%
    23:00 +14°C° 0 mm 2 mps 669 mmHg 19%

    Tomorrow, 16 July, Tuesday

    Time Temperature Precipitation Wind Pressure Humidity
    00:00 +13°C° 0 mm 2 mps 668 mmHg 20%
    01:00 +12°C° 0 mm 2 mps 668 mmHg 21%
    02:00 +12°C° 0 mm 2 mps 668 mmHg 23%
    03:00 +10°C° 0 mm 2 mps 668 mmHg 24%
    04:00 +9°C° 0 mm 2 mps 668 mmHg 26%
    05:00 +9°C° 0 mm 2 mps 668 mmHg 26%
    06:00 +8°C° 0 mm 2 mps 669 mmHg 27%
    07:00 +8°C° 0 mm 2 mps 669 mmHg 28%
    08:00 +13°C° 0 mm 3 mps 670 mmHg 23%
    09:00 +18°C° 0 mm 3 mps 671 mmHg 18%
    10:00 +23°C° 0 mm 4 mps 672 mmHg 13%
    11:00 +26°C° 0 mm 4 mps 672 mmHg 12%
    12:00 +28°C° 0 mm 3 mps 671 mmHg 10%
    13:00 +30°C° 0 mm 3 mps 671 mmHg 8%
    14:00 +30°C° 0 mm 3 mps 670 mmHg 8%
    15:00 +30°C° 0 mm 2 mps 670 mmHg 8%
    16:00 +30°C° 0 mm 2 mps 669 mmHg 8%
    17:00 +26°C° 0 mm 2 mps 669 mmHg 10%
    18:00 +23°C° 0 mm 2 mps 668 mmHg 13%
    19:00 +18°C° 0 mm 2 mps 668 mmHg 15%
    20:00 +17°C° 0 mm 2 mps 668 mmHg 16%
    21:00 +16°C° 0 mm 2 mps 668 mmHg 18%
    22:00 +15°C° 0 mm 2 mps 668 mmHg 19%
    23:00 +14°C° 0 mm 2 mps 668 mmHg 20%

    Day after tomorrow, 17 July, Wednesday

    Time Temperature Precipitation Wind Pressure Humidity
    00:00 +14°C° 0 mm 2 mps 668 mmHg 22%
    01:00 +13°C° 0 mm 2 mps 668 mmHg 23%
    02:00 +12°C° 0 mm 2 mps 668 mmHg 25%
    03:00 +12°C° 0 mm 2 mps 668 mmHg 28%
    04:00 +10°C° 0 mm 2 mps 668 mmHg 30%
    05:00 +10°C° 0 mm 2 mps 669 mmHg 32%
    06:00 +10°C° 0 mm 2 mps 669 mmHg 34%
    07:00 +10°C° 0 mm 2 mps 670 mmHg 36%
    08:00 +14°C° 0 mm 3 mps 671 mmHg 31%
    09:00 +19°C° 0 mm 3 mps 672 mmHg 26%
    10:00 +25°C° 0 mm 4 mps 673 mmHg 21%
    11:00 +27°C° 0 mm 4 mps 672 mmHg 18%
    12:00 +29°C° 0 mm 3 mps 672 mmHg 16%
    13:00 +31°C° 0 mm 3 mps 671 mmHg 13%
    14:00 +31°C° 0 mm 3 mps 671 mmHg 12%
    15:00 +31°C° 0 mm 2 mps 670 mmHg 11%
    16:00 +31°C° 0 mm 1 mps 670 mmHg 10%
    17:00 +28°C° 0 mm 1 mps 669 mmHg 13%
    18:00 +24°C° 0 mm 1 mps 669 mmHg 16%
    19:00 +20°C° 0 mm 2 mps 669 mmHg 19%
    20:00 +19°C° 0 mm 2 mps 669 mmHg 20%
    21:00 +18°C° 0 mm 2 mps 669 mmHg 22%
    22:00 +17°C° 0 mm 2 mps 669 mmHg 23%
    23:00 +16°C° 0 mm 2 mps 669 mmHg 25%

    18 July, Thursday

    Time Temperature Precipitation Wind Pressure Humidity
    00:00 +15°C° 0 mm 2 mps 668 mmHg 26%
    01:00 +14°C° 0 mm 3 mps 668 mmHg 28%
    02:00 +14°C° 0 mm 2 mps 668 mmHg 30%
    03:00 +13°C° 0 mm 2 mps 668 mmHg 33%
    04:00 +12°C° 0 mm 2 mps 668 mmHg 35%
    05:00 +12°C° 0 mm 2 mps 668 mmHg 37%
    06:00 +12°C° 0 mm 2 mps 669 mmHg 40%
    07:00 +12°C° 0 mm 2 mps 669 mmHg 43%
    08:00 +16°C° 0 mm 3 mps 670 mmHg 36%
    09:00 +20°C° 0 mm 3 mps 671 mmHg 29%
    10:00 +26°C° 0 mm 4 mps 672 mmHg 23%
    11:00 +27°C° 0 mm 4 mps 672 mmHg 20%
    12:00 +29°C° 0 mm 4 mps 671 mmHg 17%
    13:00 +31°C° 0 mm 3 mps 671 mmHg 14%
    14:00 +31°C° 0 mm 3 mps 670 mmHg 13%
    15:00 +31°C° 0 mm 3 mps 670 mmHg 13%
    16:00 +32°C° 0 mm 2 mps 669 mmHg 12%
    17:00 +28°C° 0 mm 2 mps 669 mmHg 15%
    18:00 +25°C° 0 mm 2 mps 669 mmHg 19%
    19:00 +21°C° 0 mm 2 mps 668 mmHg 22%
    20:00 +19°C° 0 mm 2 mps 668 mmHg 23%
    21:00 +18°C° 0 mm 2 mps 668 mmHg 25%
    22:00 +17°C° 0 mm 2 mps 668 mmHg 27%
    23:00 +16°C° 0 mm 2 mps 668 mmHg 28%

    19 July, Friday

    Time Temperature Precipitation Wind Pressure Humidity
    00:00 +16°C° 0 mm 2 mps 668 mmHg 30%
    01:00 +15°C° 0 mm 2 mps 668 mmHg 31%
    02:00 +14°C° 0 mm 2 mps 668 mmHg 33%
    03:00 +14°C° 0 mm 2 mps 668 mmHg 35%
    04:00 +13°C° 0 mm 2 mps 668 mmHg 37%
    05:00 +13°C° 0 mm 2 mps 668 mmHg 38%
    06:00 +12°C° 0 mm 2 mps 669 mmHg 39%
    07:00 +12°C° 0 mm 2 mps 669 mmHg 41%
    08:00 +16°C° 0 mm 3 mps 670 mmHg 33%
    09:00 +21°C° 0 mm 4 mps 671 mmHg 26%
    10:00 +26°C° 0 mm 5 mps 672 mmHg 18%
    11:00 +28°C° 0 mm 4 mps 671 mmHg 16%
    12:00 +30°C° 0 mm 4 mps 671 mmHg 14%
    13:00 +33°C° 0 mm 4 mps 670 mmHg 11%
    14:00 +33°C° 0 mm 3 mps 670 mmHg 11%
    15:00 +33°C° 0 mm 3 mps 669 mmHg 10%
    16:00 +33°C° 0 mm 3 mps 669 mmHg 10%
    17:00 +29°C° 0 mm 3 mps 669 mmHg 12%
    18:00 +25°C° 0 mm 3 mps 668 mmHg 15%
    19:00 +21°C° 0 mm 2 mps 668 mmHg 18%
    20:00 +20°C° 0 mm 2 mps 668 mmHg 19%
    21:00 +18°C° 0 mm 3 mps 668 mmHg 20%
    22:00 +17°C° 0 mm 3 mps 668 mmHg 21%
    23:00 +17°C° 0 mm 3 mps 668 mmHg 21%

    20 July, Saturday

    Time Temperature Precipitation Wind Pressure Humidity
    00:00 +16°C° 0 mm 3 mps 668 mmHg 22%
    01:00 +16°C° 0 mm 3 mps 668 mmHg 22%
    02:00 +14°C° 0 mm 3 mps 668 mmHg 24%
    03:00 +13°C° 0 mm 3 mps 668 mmHg 25%
    04:00 +12°C° 0 mm 3 mps 668 mmHg 27%
    05:00 +12°C° 0 mm 3 mps 668 mmHg 29%
    06:00 +12°C° 0 mm 2 mps 668 mmHg 31%
    07:00 +12°C° 0 mm 2 mps 669 mmHg 33%
    08:00 +16°C° 0 mm 3 mps 670 mmHg 27%
    09:00 +21°C° 0 mm 4 mps 671 mmHg 21%
    10:00 +26°C° 0 mm 4 mps 672 mmHg 14%
    11:00 +28°C° 0 mm 4 mps 671 mmHg 13%
    12:00 +30°C° 0 mm 4 mps 671 mmHg 11%
    13:00 +33°C° 0 mm 4 mps 671 mmHg 9%
    14:00 +33°C° 0 mm 3 mps 670 mmHg 8%
    15:00 +33°C° 0 mm 3 mps 669 mmHg 8%
    16:00 +33°C° 0 mm 3 mps 669 mmHg 7%
    17:00 +29°C° 0 mm 2 mps 668 mmHg 9%
    18:00 +25°C° 0 mm 2 mps 668 mmHg 12%
    19:00 +21°C° 0 mm 2 mps 667 mmHg 14%
    20:00 +20°C° 0 mm 2 mps 668 mmHg 15%
    21:00 +19°C° 0 mm 2 mps 668 mmHg 15%
    22:00 +17°C° 0 mm 2 mps 668 mmHg 16%
    23:00 +16°C° 0 mm 2 mps 668 mmHg 17%
    Show more